TIANLIAN 2-03

Last updated on Sun Jun 21 2026 00:03:08 GMT+0000 (Coordinated Universal Time)

1 53100U 22078A 26171.25153683 .00000067 00000+0 00000+0 0 9999 2 53100 0.6787 77.0936 0001322 333.4102 319.0912 1.00271393 14573
UTC large
Height (km)
Speed (km/s)
/
Latitude / Longitude
Inclination (degrees)
Orbital Period (minutes)
Azimuth
Elevation
Range (km)
Doppler Factor

Next 0 passes for location: London (51.5072 / 0.1276)

No passes found over London.
TIANLIAN 2-03